Flag for United Kingdom Weather past 2 weeks in Carlisle, England, United Kingdom

Now
42 °F

Quite cool.


Feels Like: N/A
Forecast: 36 / 52 °F
Wind: N/A

Location: Carlisle

Current Time: Mar 28, 2015 at 1:58:34 AM

Latest Report: Mar 28, 2015 at 1:00 AM


Visibility: 25 mi

Pressure: 29.93 "Hg

Humidity: 75%

Dew point: 35 °F

Location of CarlisleLocation

Historic Weather in Carlisle — Graph

°F

Carlisle temperature yesterday

Maximum temperature yesterday: 47 °F (at 12:00 PM)
Minimum temperature yesterday: 35 °F (at 6:00 AM)
Average temperature yesterday: 41 °F

Past Weeks' High & Low Weather Summary

 TemperatureHumidityPressure
High53 °F (Mar 19, 3:00 PM)100% (Mar 13, 12:00 AM)30.64 "Hg (Mar 13, 12:00 AM)
Low29 °F (Mar 25, 6:00 AM)43% (Mar 25, 3:00 PM)29.35 "Hg (Mar 26, 9:00 AM)
Average42 °F87%30.23 "Hg
* Reported Midnight between Mar 12 and Mar 13 — Midnight between Mar 27 and Mar 28, Carlisle, Weather by CustomWeather, © 2015

Note: Actual official high and low records may vary slightly from our data, if they occured in-between our weather recording intervals... More about our weather records

Advertising

Carlisle weather history for previous 24 hours

 ConditionsComfort  
Time TempWeatherWind HumidityBarometerVisibility
12:00 AM
Sat, Mar 28
40 °FQuite cool.N/A76%29.98 "Hg25 mi
11:00 PM
Fri, Mar 27
38 °FChilly.N/A83%30.01 "Hg19 mi
10:00 PM38 °FChilly.N/A81%30.03 "Hg19 mi
9:00 PM39 °FChilly.N/A82%30.05 "Hg18 mi
8:00 PM41 °FQuite cool.N/A82%30.06 "Hg25 mi
7:00 PM43 °FQuite cool.N/A71%30.05 "Hg25 mi
6:00 PM45 °FCool.N/A67%30.05 "Hg25 mi
5:00 PM46 °FCool.N/A54%30.04 "Hg31 mi
3:00 PM47 °FCool.N/A53%30.05 "Hg28 mi
2:00 PM47 °FCool.N/A57%30.04 "Hg31 mi
1:00 PM46 °FCool.N/A58%30.04 "Hg34 mi
12:00 PM47 °FCool.N/A59%30.05 "Hg28 mi
11:00 AM47 °FCool.N/A69%30.06 "Hg22 mi
10:00 AM46 °FCool.N/A82%30.06 "Hg22 mi
9:00 AM43 °FQuite cool.N/A93%30.04 "Hg18 mi
8:00 AM40 °FChilly.N/A100%30.03 "Hg19 mi
7:00 AM36 °FChilly.N/A100%30.02 "Hg17 mi
6:00 AM35 °FChilly.N/A100%30.01 "Hg17 mi
5:00 AM36 °FChilly.N/A100%30.00 "Hg19 mi
4:00 AM37 °FChilly.N/A97%29.97 "Hg22 mi
3:00 AM37 °FChilly.N/A99%29.96 "Hg18 mi
2:00 AM38 °FChilly.N/A95%29.94 "Hg19 mi
1:00 AM40 °FChilly.N/A89%29.94 "Hg22 mi
Weather by CustomWeather, © 2015

See weather overviewHow to use our weather pages